"Pseudo-MPEC" for P10NZV7

Created 2019 Jun 15 19:07:47 UT using Find_Orb

Click here for an explanation of pseudo-MPECs

 
 Astrometry: 
     P10NZV7  C2019 05 25SU-K+XWK\A;d#urP'x/Pi:CLs.RXUNdb)qgh)Em@f/*C*VMeT]pxF51
     P10NZV7  C2019 05 25Q9JJ!V\V*AstrometryFsgq`0!+#AKf%Iq\v\63,4d8h!nKXRK+tF51
     P10NZV7  C2019 05 25Ck^xw;?H(xqSZHiK[v9vRhwm/-?:[b,?:]4Y_pW1IlY9=n50HekbF51
     P10NZV7  C2019 05 30q^L$Wf_sLX3cFFI=$4fJmYA;HQ3n/PemC%B\xIn22:X516IR`p1[F51
     P10NZV7  C2019 05 30fZ3*G[9w`SwePYyMP1Ab!SyJ+9upua*bkRw^)wx7tg-\fZ2QUN,bF51
     P10NZV7  C2019 05 30M1GA,GXlTUP8RNOl3(\G:gVit?p+@77^-8ae*o@ZaLredacted;bF51
     P10NZV7  C2019 05 306,/,?7Bf,0wO^Ei\7ZuDr6d_^6GeR]qaDclick7yfW_PT44JYWaJF51
     P10NZV7 |C2019 06 05k\I=r3?WK/X6b.#:EVZV;1ehereOy5cWv3for26@^I9pOINeejsh807
     P10NZV7 |C2019 06 05^rE?O`Pnj))S`Z@clW)QZBG/EuO0@HS$uRw$lMr\WUiq5d4(uq3U807
     P10NZV7 |C2019 06 05n4?m/nX)pexplanation1bkc_oUgAlxw[o2E^n@/[P#oIK%q)bg:807

Station data:
(807) Cerro Tololo Observatory, La Serena  (S30.169136 W70.805900)  Chile.
(F51) Pan-STARRS 1, Haleakala  (N20.707235 W156.255910)  US/Hawaii.
   Observers N. Primak, A. Schultz, S. Watters, J. Thiel, T. Goggia. Measurer
   PS1 Science Consortium. 1.8-m Ritchey-Chrétien + CCD.

Orbital elements:  P10NZV7
   Perihelion 2020 Feb 25.782532 +/- 1.93 TT = 18:46:50 (JD 2458905.282532)
Epoch 2019 Jun  5.0 TT = JDT 2458639.5   Earth MOID: 0.4932   AutoNEOCP
M 300.36750902 +/- 0.9              (J2000 ecliptic)
n   0.22436572 +/- 0.00187          Peri.  351.23487 +/- 0.36
a   2.68224454 +/- 0.0149           Node   346.50777 +/- 0.14
e   0.4408760 +/- 0.00315           Incl.   18.28732 +/- 0.040
P   4.39                   H 17.9   G  0.15   U  8.5  
q 1.49970717 +/- 0.000254    Q 3.86478192 +/- 0.0302
From 10 observations 2019 May 25-June 5; mean residual 0".10
Residuals in arcseconds: 
190525 F51  .11-  .09+    190530 F51  .03+  .09+    190605 807  .04-  .03-    
190525 F51  .05+  .18+    190530 F51  .05+  .07-    190605 807  .02-  .07+    
190525 F51  .06+  .27-    190530 F51  .01-  .14-    
190530 F51  .07-  .12+    190605 807  .06+  .04-    

Ephemerides (geocentric):
Date (UTC) HH   RA              Dec         delta   r     elong  mag " sig PA
---- -- -- --  -------------   -----------  ------ ------ -----  --- ---- ---
2019 06 15 19  13 03 14.801   -30 51 23.10  1.8558 2.5226 120.1 22.3 2.87  62
2019 06 15 20  13 03 14.543   -30 51 10.75  1.8560 2.5224 120.0 22.3 2.89  62
2019 06 15 21  13 03 14.288   -30 50 58.41  1.8562 2.5222 120.0 22.3 2.91  62
2019 06 15 22  13 03 14.037   -30 50 46.08  1.8564 2.5220 119.9 22.3 2.92  62
2019 06 15 23  13 03 13.789   -30 50 33.77  1.8567 2.5218 119.9 22.3 2.94  62
2019 06 16 00  13 03 13.544   -30 50 21.47  1.8569 2.5216 119.9 22.3 2.96  62
2019 06 16 01  13 03 13.303   -30 50 09.17  1.8571 2.5214 119.8 22.3 2.98  62
2019 06 16 02  13 03 13.066   -30 49 56.89  1.8574 2.5212 119.8 22.3 3.00  62
2019 06 16 03  13 03 12.832   -30 49 44.63  1.8576 2.5210 119.8 22.3 3.02  62
2019 06 16 04  13 03 12.601   -30 49 32.37  1.8578 2.5208 119.7 22.3 3.03  62
2019 06 16 05  13 03 12.374   -30 49 20.12  1.8581 2.5206 119.7 22.3 3.05  62
2019 06 16 06  13 03 12.151   -30 49 07.89  1.8583 2.5204 119.6 22.3 3.07  62
2019 06 16 07  13 03 11.931   -30 48 55.67  1.8585 2.5202 119.6 22.3 3.09  62
2019 06 16 08  13 03 11.714   -30 48 43.46  1.8588 2.5200 119.6 22.3 3.11  62
2019 06 16 09  13 03 11.501   -30 48 31.26  1.8590 2.5198 119.5 22.3 3.13  63
2019 06 16 10  13 03 11.291   -30 48 19.07  1.8592 2.5196 119.5 22.3 3.15  63
2019 06 16 11  13 03 11.085   -30 48 06.89  1.8595 2.5194 119.5 22.3 3.17  63
2019 06 16 12  13 03 10.882   -30 47 54.73  1.8597 2.5192 119.4 22.3 3.18  63
2019 06 16 13  13 03 10.683   -30 47 42.58  1.8599 2.5190 119.4 22.3 3.20  63
2019 06 16 14  13 03 10.487   -30 47 30.44  1.8602 2.5188 119.3 22.3 3.22  63
2019 06 16 15  13 03 10.295   -30 47 18.31  1.8604 2.5186 119.3 22.3 3.24  63
2019 06 16 16  13 03 10.106   -30 47 06.19  1.8606 2.5184 119.3 22.3 3.26  63
2019 06 16 17  13 03 09.921   -30 46 54.09  1.8609 2.5182 119.2 22.3 3.28  63
2019 06 16 18  13 03 09.739   -30 46 41.99  1.8611 2.5179 119.2 22.3 3.30  63
2019 06 16 19  13 03 09.560   -30 46 29.91  1.8613 2.5177 119.2 22.3 3.32  63
2019 06 16 20  13 03 09.385   -30 46 17.84  1.8616 2.5175 119.1 22.3 3.34  63
2019 06 16 21  13 03 09.214   -30 46 05.78  1.8618 2.5173 119.1 22.3 3.36  63
2019 06 16 22  13 03 09.046   -30 45 53.74  1.8620 2.5171 119.0 22.3 3.38  63
2019 06 16 23  13 03 08.881   -30 45 41.70  1.8623 2.5169 119.0 22.3 3.40  63
2019 06 17 00  13 03 08.720   -30 45 29.68  1.8625 2.5167 119.0 22.3 3.42  63
2019 06 17 01  13 03 08.562   -30 45 17.67  1.8627 2.5165 118.9 22.3 3.44  63
2019 06 17 02  13 03 08.408   -30 45 05.67  1.8630 2.5163 118.9 22.3 3.46  63
2019 06 17 03  13 03 08.257   -30 44 53.68  1.8632 2.5161 118.9 22.3 3.48  63
2019 06 17 04  13 03 08.110   -30 44 41.71  1.8634 2.5159 118.8 22.3 3.50  63
2019 06 17 05  13 03 07.966   -30 44 29.75  1.8637 2.5157 118.8 22.3 3.52  64
2019 06 17 06  13 03 07.825   -30 44 17.80  1.8639 2.5155 118.8 22.3 3.54  64
2019 06 17 07  13 03 07.688   -30 44 05.86  1.8641 2.5153 118.7 22.3 3.56  64
2019 06 17 08  13 03 07.555   -30 43 53.93  1.8644 2.5151 118.7 22.3 3.58  64
2019 06 17 09  13 03 07.425   -30 43 42.01  1.8646 2.5149 118.6 22.3 3.60  64
2019 06 17 10  13 03 07.298   -30 43 30.11  1.8648 2.5147 118.6 22.3 3.62  64
2019 06 17 11  13 03 07.175   -30 43 18.22  1.8651 2.5145 118.6 22.3 3.64  64
2019 06 17 12  13 03 07.055   -30 43 06.34  1.8653 2.5143 118.5 22.3 3.66  64
2019 06 17 13  13 03 06.939   -30 42 54.48  1.8656 2.5141 118.5 22.3 3.68  64
2019 06 17 14  13 03 06.826   -30 42 42.62  1.8658 2.5139 118.5 22.3 3.70  64
2019 06 17 15  13 03 06.716   -30 42 30.78  1.8660 2.5137 118.4 22.3 3.72  64
2019 06 17 16  13 03 06.610   -30 42 18.95  1.8663 2.5135 118.4 22.3 3.74  64
2019 06 17 17  13 03 06.508   -30 42 07.13  1.8665 2.5133 118.3 22.3 3.76  64
2019 06 17 18  13 03 06.409   -30 41 55.32  1.8667 2.5131 118.3 22.3 3.78  64